Theta_e
279 278 278 278 278 278 278 278 278 278 278 278 278 278 278 279 279 279 280 280 280 281 281 282 282 283 283 283 283 284 284 284 284 284 284 284 285 285 285 285 285 285
278 278 277 277 277 277 277 277 277 277 277 277 277 278 278 278 278 278 278 278 279 279 280 280 281 281 282 282 282 283 283 283 283 283 283 283 284 284 284 284 284 284
277 277 277 277 277 277 277 277 277 277 277 277 277 277 277 277 278 278 278 278 278 278 278 279 279 279 280 280 281 281 282 282 282 282 282 282 282 283 283 283 283 283
277 276 276 276 276 276 276 276 276 277 277 277 277 277 277 277 277 277 277 277 277 278 278 278 278 278 278 279 279 280 280 281 281 281 281 281 281 281 282 282 282 282
276 276 276 276 276 276 276 276 276 276 276 277 277 277 277 277 277 277 277 277 277 277 277 277 277 278 278 278 278 278 279 279 279 280 280 280 280 280 281 281 281 281
276 276 276 276 276 276 276 276 276 276 276 276 276 276 277 277 277 277 277 277 277 277 277 277 277 277 277 277 278 278 278 278 278 279 279 279 280 280 280 280 280 280
276 276 276 276 276 276 276 276 276 276 276 276 276 276 276 276 276 276 277 277 277 277 277 277 277 277 277 277 277 277 277 277 278 278 278 278 279 279 279 279 279 279
275 275 276 276 276 275 275 275 275 275 275 275 276 276 276 276 276 276 276 276 276 276 276 276 276 276 276 276 276 277 277 277 277 277 277 277 278 278 278 278 278 278
275 275 275 275 275 275 275 275 275 275 275 275 275 275 275 275 275 275 275 275 275 275 276 276 276 276 276 276 276 276 276 276 276 277 277 277 277 277 277 277 277 278
275 275 275 275 275 275 274 274 275 275 275 275 275 275 275 275 275 275 275 275 275 275 275 275 275 275 275 275 275 275 275 275 276 276 276 276 276 276 277 277 277 277
275 275 275 275 274 274 274 274 274 274 274 275 275 275 275 275 275 275 274 274 274 274 274 274 274 274 275 275 275 275 275 275 275 275 275 275 276 276 276 276 276 276
275 275 274 274 274 274 274 274 274 274 274 274 274 274 274 274 274 274 274 274 274 274 274 274 274 274 274 274 274 274 274 274 274 275 275 275 275 275 275 275 275 275
274 274 274 274 273 273 273 274 274 274 274 274 274 274 274 274 274 273 273 273 273 273 273 273 273 273 273 273 273 273 273 273 274 274 274 274 274 275 275 275 275 275
274 274 273 273 273 273 273 273 273 274 274 274 273 273 273 273 273 273 273 273 273 273 272 272 272 272 272 272 272 273 273 273 273 274 273 274 274 274 274 274 274 274
274 273 273 273 273 273 273 273 273 273 273 273 273 273 273 273 273 272 272 272 272 272 272 272 272 272 272 272 272 272 272 272 272 273 273 273 274 274 274 274 274 274
273 273 273 273 273 273 273 273 273 273 273 273 273 273 273 272 272 272 272 272 272 272 272 272 272 271 271 271 271 271 270 271 271 272 272 273 273 273 273 273 273 273
273 273 272 272 272 273 273 273 273 273 273 273 273 272 272 272 272 272 272 271 272 272 272 271 271 271 271 271 271 270 270 270 270 271 272 273 273 273 273 273 273 273
272 272 272 272 272 272 272 273 273 273 273 273 272 272 272 272 271 271 271 271 271 271 271 271 271 271 271 271 271 270 270 269 269 270 272 272 272 272 272 272 272 273
272 272 272 272 272 272 272 272 272 272 272 272 272 272 272 271 271 271 271 271 271 271 271 271 271 271 271 270 270 270 270 269 269 270 272 272 271 271 272 272 272 272
272 272 271 272 272 272 272 272 272 272 272 272 272 271 271 271 271 271 271 270 270 270 271 271 270 270 270 270 270 270 269 269 269 270 271 271 271 271 271 271 271 271
272 271 271 271 272 272 272 272 272 272 272 272 271 271 271 271 271 270 270 270 270 270 270 270 270 270 270 270 269 269 269 269 270 270 271 271 271 271 271 271 271 271
271 271 271 271 271 271 271 271 271 271 271 271 271 271 271 270 270 270 270 270 270 269 270 270 270 269 269 269 269 269 269 269 269 270 270 270 271 271 270 270 270 269
271 271 271 271 271 271 271 271 271 271 271 271 271 271 270 270 270 270 269 269 269 269 269 270 270 269 269 269 269 268 268 268 269 269 269 269 270 270 269 269 268 268
271 270 270 271 271 271 271 271 271 270 270 270 270 270 270 270 270 270 269 269 269 268 268 269 269 269 268 268 268 268 268 268 267 267 267 268 268 268 268 267 267 267
270 270 270 270 270 270 270 270 270 270 270 270 270 270 270 269 269 269 269 269 268 268 268 268 269 269 268 268 268 268 267 267 266 266 266 266 267 266 267 267 267 267
270 270 270 270 270 270 270 270 270 270 270 269 269 269 269 269 269 269 269 268 268 268 268 268 268 268 268 268 267 267 267 266 266 266 265 265 266 266 267 267 267 267
Wind_Speed
21 21 21 21 21 21 21 22 22 23 24 24 25 25 25 25 25 25 25 25 25 25 24 24 24 24 24 23 23 22 21 21 20 20 20 19 19 19 18 18 18 18
20 20 20 20 20 20 21 21 22 23 23 24 24 24 25 25 25 26 26 25 25 25 25 25 25 25 25 24 24 24 24 23 22 21 21 21 20 20 20 19 19 19
20 19 19 19 20 20 21 22 22 23 24 24 24 25 25 25 25 26 26 26 26 25 25 25 25 25 25 25 25 25 25 25 24 23 22 22 22 22 21 21 21 20
18 18 18 19 19 20 22 23 24 25 25 26 26 26 26 26 26 26 26 26 26 26 26 26 26 25 25 25 25 25 25 25 25 25 24 23 23 23 23 23 22 22
17 17 18 19 20 22 23 25 26 26 27 27 27 27 27 27 27 27 27 27 27 27 27 26 26 26 26 25 25 25 25 25 25 25 25 24 24 24 23 23 23 23
17 18 19 21 23 25 26 27 28 28 28 28 28 28 28 28 28 28 28 27 27 27 27 27 26 26 26 26 25 25 25 25 25 25 25 25 24 24 24 24 24 23
17 19 21 24 26 28 29 29 29 29 29 29 29 29 28 28 28 28 27 27 27 27 27 27 27 26 26 26 25 25 25 25 25 25 25 25 25 24 24 24 24 24
19 21 23 26 28 30 30 30 30 30 30 29 29 29 29 28 28 27 27 26 26 26 27 27 27 26 26 26 25 25 24 24 25 25 24 24 24 24 24 24 24 24
20 22 25 28 30 30 30 30 30 30 30 29 29 29 29 28 28 27 27 26 26 25 26 26 26 26 26 26 25 25 24 24 24 24 24 24 24 24 24 24 24 24
21 23 26 29 29 29 29 30 29 29 29 28 28 28 28 28 28 28 27 27 26 25 25 25 25 26 26 26 25 25 25 24 24 24 23 23 23 23 23 23 23 23
22 24 27 28 29 29 29 29 28 28 28 28 28 27 28 28 28 27 27 27 26 25 25 25 25 25 25 25 25 25 25 25 24 24 23 22 22 23 23 23 23 23
23 26 27 28 28 28 28 28 27 27 27 27 26 27 27 27 27 27 27 26 26 25 25 24 24 24 24 24 24 25 25 25 24 24 23 22 22 22 22 22 22 23
24 26 27 28 28 28 28 27 26 26 26 26 26 26 26 27 26 26 26 26 25 25 24 24 23 23 23 23 24 24 24 24 24 24 24 23 23 22 22 22 22 23
25 26 27 27 28 28 27 26 26 26 26 26 26 26 26 26 26 26 25 25 25 24 24 23 23 22 22 22 23 23 23 24 24 24 25 25 24 23 22 22 23 23
25 26 27 27 28 27 25 25 25 26 26 26 26 26 26 26 26 25 25 24 24 23 23 22 22 21 21 21 21 22 22 23 24 24 25 26 25 24 23 23 23 23
25 26 27 27 27 25 24 25 25 25 25 25 25 25 25 25 25 25 25 24 23 22 22 22 21 21 20 19 19 19 20 21 23 24 25 26 25 25 24 24 24 24
25 26 26 26 25 24 23 24 25 25 25 25 25 25 25 25 25 24 24 24 23 22 22 21 21 20 20 19 18 17 17 19 21 23 25 25 25 25 25 25 24 24
25 25 26 25 24 23 23 23 24 24 24 24 25 25 25 24 24 24 24 24 23 22 21 21 21 20 19 19 18 17 17 17 20 23 25 25 24 24 25 25 24 25
25 25 25 25 23 22 22 23 23 23 24 24 24 24 24 24 24 24 24 24 23 22 21 20 20 20 19 19 18 18 17 17 20 24 25 24 24 24 24 24 24 25
25 25 25 24 22 22 22 22 23 23 23 23 23 23 23 23 23 23 23 23 23 23 22 21 20 20 19 18 18 18 17 18 22 24 24 24 24 23 23 24 24 24
25 25 24 24 22 22 22 22 23 23 23 23 23 23 23 23 23 23 23 23 23 23 23 21 20 20 19 18 18 18 18 20 23 24 24 24 24 23 23 23 23 24
25 25 24 23 23 22 22 22 22 22 22 23 22 22 23 22 22 22 22 22 22 23 23 22 20 19 19 18 18 18 18 20 23 23 24 24 24 23 23 23 24 23
25 25 24 24 23 22 22 22 22 22 22 22 22 22 22 22 22 22 22 22 22 22 23 23 21 20 19 18 17 17 18 20 22 23 23 24 24 23 23 23 23 22
25 25 25 24 23 22 22 22 22 22 22 22 22 22 22 22 22 22 21 21 22 22 23 24 22 20 19 18 17 16 17 19 21 22 23 24 23 23 23 22 22 21
25 25 25 24 24 23 22 22 22 22 22 22 22 22 22 21 22 22 21 21 21 22 22 23 23 21 19 18 17 16 15 17 19 20 22 23 22 22 21 20 19 19
25 25 25 25 24 23 23 22 22 22 22 22 22 22 22 22 22 22 22 21 21 21 22 22 23 22 20 18 17 16 14 15 17 18 20 21 21 21 21 19 18 18
Wind_Direction
358 357 357 357 356 356 355 355 353 352 351 349 348 346 345 344 341 339 338 336 335 333 331 330 329 328 328 328 328 328 328 329 329 328 327 327 326 325 326 326 325 325
357 358 358 357 357 356 355 355 354 353 351 349 347 346 344 343 341 340 338 336 335 333 330 329 327 325 324 323 323 323 323 324 324 324 323 323 322 320 320 320 319 318
356 356 356 356 356 355 354 353 352 350 349 346 345 343 342 341 340 338 337 336 335 334 332 330 327 326 324 322 321 320 319 320 319 320 321 321 320 319 318 316 316 315
354 355 355 355 354 352 351 349 347 345 344 342 341 340 338 337 336 335 334 333 333 332 332 331 329 328 326 324 322 319 318 317 316 316 317 318 318 316 315 315 314 313
354 354 353 352 350 348 346 344 342 340 339 337 336 335 334 333 332 332 331 330 329 329 329 329 329 328 327 326 324 322 319 317 315 314 313 314 315 314 314 313 312 312
351 350 349 348 346 343 341 340 338 337 336 335 334 333 332 331 330 329 328 327 326 325 325 325 325 325 325 325 324 323 321 319 317 315 314 313 312 312 312 311 311 311
345 345 344 343 342 339 338 337 336 336 335 335 334 333 332 331 330 328 327 326 324 323 323 322 322 322 322 322 322 321 320 319 318 317 315 314 313 311 311 310 310 310
339 340 340 339 338 336 336 335 335 335 335 334 334 333 333 332 330 329 327 325 323 322 321 319 319 319 319 319 319 319 318 318 317 317 316 316 315 313 312 311 310 310
334 335 336 335 334 333 334 334 334 334 334 334 334 333 332 332 330 329 328 326 324 322 319 318 317 317 317 317 317 317 317 316 316 316 316 316 316 315 313 312 311 311
329 331 331 331 331 331 332 332 332 333 333 334 334 333 332 332 330 329 327 326 324 322 320 318 316 315 315 316 316 316 316 315 315 315 315 315 315 314 314 313 313 313
325 327 327 327 328 329 330 331 332 333 333 334 334 333 333 332 330 329 327 326 324 322 321 318 316 315 315 314 315 315 315 314 314 314 315 314 313 313 314 314 315 314
322 324 324 325 327 328 330 331 332 333 334 334 334 334 333 332 331 329 327 325 324 322 320 319 317 315 314 314 313 313 313 313 313 314 314 314 313 314 314 315 315 314
320 322 322 324 326 328 329 330 332 333 334 334 334 334 333 332 331 329 327 325 323 322 320 319 317 315 315 314 313 313 313 312 312 313 314 314 314 315 316 315 314 313
319 319 321 323 325 327 328 330 331 333 334 334 334 334 334 333 332 331 329 327 324 323 321 319 318 316 315 315 313 313 313 312 312 313 313 313 314 316 318 316 314 313
316 317 319 322 324 326 327 328 330 332 333 333 333 333 333 333 333 332 330 328 326 324 321 319 318 317 316 316 315 315 314 312 312 312 312 311 314 316 316 315 314 314
313 315 317 320 323 324 325 327 329 330 332 332 332 331 331 331 332 331 330 329 327 325 322 320 318 316 316 315 315 314 312 309 308 308 308 309 312 315 314 314 315 314
310 312 316 319 321 321 322 325 327 328 330 330 330 329 329 329 329 329 329 328 327 325 323 321 318 317 316 314 313 312 307 305 305 304 304 307 312 314 313 313 314 313
307 310 314 317 318 319 320 323 324 326 327 328 328 327 327 327 327 327 327 326 325 325 324 321 319 317 315 313 312 309 305 303 302 300 302 308 312 311 312 314 314 312
305 309 313 315 316 316 318 320 322 323 324 325 325 325 324 324 324 324 325 324 323 323 322 321 319 316 315 313 311 308 306 303 299 298 302 308 310 309 310 312 312 313
304 308 311 313 314 314 315 317 319 320 321 322 323 323 322 323 322 322 322 322 321 321 321 321 319 316 315 313 310 308 306 301 297 299 303 306 306 307 309 311 313 314
303 307 310 311 311 311 312 314 315 317 318 320 321 321 321 321 321 321 320 321 321 319 319 320 320 317 316 314 311 310 306 300 299 301 304 304 305 308 311 312 313 315
301 305 307 308 308 308 309 310 312 314 315 317 318 319 319 320 320 320 320 320 320 318 317 318 319 318 317 316 313 311 306 302 301 303 304 304 307 311 313 314 316 320
300 303 305 306 306 306 306 307 309 310 311 313 315 316 317 317 317 318 319 318 319 318 316 317 319 320 319 317 315 312 308 304 303 305 305 307 310 313 316 318 320 322
298 300 302 302 302 303 303 304 305 307 308 309 311 313 314 315 315 315 317 317 317 317 316 316 319 321 321 319 317 314 309 305 304 306 306 309 313 317 319 319 318 317
296 299 299 299 300 300 301 302 303 304 305 306 308 309 310 311 312 312 314 315 315 316 316 316 317 319 321 320 318 316 311 304 303 304 306 310 315 318 318 314 311 310
294 296 296 296 297 298 298 299 300 300 302 303 304 306 307 308 309 309 311 313 314 314 315 315 316 317 320 321 319 318 313 302 298 301 306 313 317 315 311 309 307 305